Погода в Чернолучье

Россия / Омская область     55°14′10″N   73°01′05″E
темп.,
°C
ветер,
м/с
пор.,
м/с
влажн.,
%
обл.,
%
осадки,
мм/ч
давл.,
гПа
погр.,
м
16 мая, вс
вс1600:00+17ю11671 0.0 101711
03:00+16юз476670 0.0 1016114
06:00+15зюз117519 0.0 101516
09:00+22зсз485093 0.0 1014331
12:00+27сз81236100 0.0 10141728
15:00+27сз8123490 0.0 10152365
18:00+27ссз6123995 0.0 10152385
21:00+20ссв226714 0.3 101615
17 мая, пн
пн1700:00+19св226893 0.6 101613
03:00+17в007814 0.5 101611
06:00+17ююз22765 0.5 101723
09:00+23ююз56555 0.0 1016394
12:00+29зсз57315 0.0 10151428
15:00+31зсз710245 0.0 10153754
18:00+30зсз610274 0.0 10133125
21:00+22зсз234719 0.0 101327
18 мая, вт
вт1800:00+20зсз464775 0.0 101371
03:00+18зсз410564 0.1 1012197
06:00+17зсз386151 0.1 1012141
09:00+23зсз5747100 0.1 1011447
12:00+26зсз463899 0.1 10101557
15:00+28зсз7103087 0.0 10083628
18:00+28зсз613311 0.0 10053324
21:00+16сз514721 0.2 1007552
19 мая, ср
ср1900:00+14зсз411799 0.4 1007412
03:00+14ссз6118298 0.0 1007741
06:00+12с9138096 0.1 1010840
09:00+13ссв8126673 0.0 10131299
12:00+15ссв9114334 0.1 10152091
15:00+17с8103572 0.0 10172533
18:00+16с89355 0.0 10182433
21:00+12с6124183 0.0 1021509
20 мая, чт
чт2000:00+8с4104811 0.0 1023259
03:00+6с365926 0.0 1025123
06:00+5с375852 0.0 1026212
09:00+10с454046 0.0 1027924
12:00+13ссз573020 0.0 10261543
15:00+16ссз5630100 0.0 10251699
18:00+16сз463383 0.0 10241691
21:00+13зюз335179 0.0 102421